SL-14 R/B, 15100

Orbit data source: Space-Track

SL-14 R/B, 15100 is space debris in LEO originally from a launch on Thu, 05 Jul 1984 UTC launched from the Plesetsk Missile And Space Complex (PKMTR). Debris objects in space refer to the collection of defunct objects orbiting the Earth. Examples of debris include non-operational satellites, rocket bodies, and fragments generated from explosions, collisions, or faulty payload assembly.

Loading next visibility...
Identifier
15100, 1984-072B
Orbit
LEO
Country
Flag of CISCIS
Related business
Manufacturer
Yuzhnoe
Mission
Spacecraft
Bus & Motor
S5M, Unknown motor
Mass
1,600 kg wet, 1,600 kg dry
Launch date (UTC)
1984-07-05 (42 years ago)
Launch vehicle
Unknown
Launch site
Plesetsk Missile And Space Complex (PKMTR)
Object type
Payload
Rocket body
Debris
Shape & HBR
Unknown
Radar Cross Section
Large (>1 m²)

Expand to show TLE details & history
Last TLE update: 8 hours ago

TLE from 8 hours ago
0 SL-14 R/B
1 15100U 84072B   26062.16847932  .00000051  00000-0  31833-4 0  9992
2 15100  82.5306 129.4901 0013038  60.6689 299.5772 13.84552666104809
Epoch: 2026-03-03T04:02Z
TLE epoch observation values (Epoch: 2026-03-03T04:02:36.613Z)
Latitude
-0.00002°
Longitude
-92.11387°
Altitude
945.979 km
Speed
7.381 km/s
True Right ascension
08h 37m 57s
True Declination
0° 00' 00"
Sunlit
Object was in full shadow at epoch
Visualization orbit readout
Latitude
Unknown
Longitude
Unknown
Altitude
Unknown
Speed
Unknown
Apparent Right ascension
Unknown
Apparent Declination
Unknown
Sunlit
N/A
Visualization observer readout
Local Sidereal Time
16:10:35
Azimuth
Unknown
Elevation
Unknown
Doppler factor
Unknown
Orbital elements
Apogee altitude
954.483 km
Perigee altitude
935.387 km
Semi-major axis
7,323.072 km
Eccentricity
0.0013
Inclination
82.5306°
RAAN
129.4901°
Arg. of periapsis
60.6689°
True anomaly
299.44716°
Mean anomaly
299.5772°
Eccentric anomaly
299.51219°
Mean motion
3.4634 °/min
Orbital period
103.94 mins
BSTAR
0.000031833
Loading maneuver chart data...
Computing Atmospheric mass density...
Loading historical data...
Loading historical data...
Loading historical data...
Loading historical data...
Loading historical data...
Loading historical data...
Loading historical data...

Documentation

Showing up to 5 results
|